Regional Weather Roundup
Issued by NWS Upton, NY

Current Version | Previous Version | Text Only | Print | Product List | Glossary Off
Versions: 1 2 3 4 5 6 7 8 9 10 11 12 13 14 15 16 17 18 19 20 21 22 23 24 25 26 27 28 29 30 31 32 33 34 35 36 37 38 39 40 41 42 43 44 45 46 47 48 49 50
624 ASUS41 KOKX 060004 RWROKX REGIONAL WEATHER ROUNDUP NATIONAL WEATHER SERVICE NEW YORK NY 800 PM EDT THU MAY 05 2016 NOTE: "FAIR" INDICATES FEW OR NO CLOUDS BELOW 12,000 FEET WITH NO SIGNIFICANT WEATHER AND/OR OBSTRUCTIONS TO VISIBILITY. NYZ071-072-176-178-NJZ106-104-060100- NEW YORK CITY METRO AREA CITY SKY/WX TMP DP RH WIND PRES REMARKS CENTRAL PARK CLOUDY 55 43 63 NE10G21 29.67R LAGUARDIA APRT CLOUDY 57 48 72 NE14G24 29.65R KENNEDY INTL CLOUDY 54 44 69 N17 29.66R NEWARK/LIBERTY CLOUDY 56 44 64 NE12 29.65R BRNX BOT. GARD N/A 54 43 66 E3 29.67S TETERBORO CLOUDY 56 42 59 NE7 29.64R $$ NYZ177-179-078>081-060100- LONG ISLAND NEW YORK CITY SKY/WX TMP DP RH WIND PRES REMARKS FARMINGDALE CLOUDY 52 44 74 NE10 29.65R ISLIP DRIZZLE 49 44 83 NE18G26 29.64R SHIRLEY CLOUDY 49 43 80 N8G20 29.66R RIVERHEAD N/A 48 45 87 NE7 29.66R WESTHAMPTON CLOUDY 44 41 89 N16 29.66 EAST HAMPTON CLOUDY 46 41 85 NE12G20 29.63R MONTAUK POINT NOT AVBL $$ NYZ052-065-067-060100- HUDSON VALLEY CITY SKY/WX TMP DP RH WIND PRES REMARKS WHITE PLAINS CLOUDY 53 43 68 NE8 29.65R NEWBURGH CLOUDY 55 46 71 NE9 29.67R MONTGOMERY CLOUDY 56 45 66 NE17G24 29.66R POUGHKEEPSIE CLOUDY 58 44 60 NE10 29.66R ALBANY CLOUDY 56 44 64 N8 29.71S $$ NJZ001-105-106-008-010-013-015-019>022-104-060100- NEW JERSEY CITY SKY/WX TMP DP RH WIND PRES REMARKS NEWARK/LIBERTY CLOUDY 56 44 64 NE12 29.65R TETERBORO CLOUDY 56 42 59 NE7 29.64R CALDWELL CLOUDY 56 43 61 NE6 29.65R MORRISTOWN CLOUDY 55 45 67 E7G17 29.66R SOMERVILLE CLOUDY 57 44 62 NE5 29.63R SUSSEX CLOUDY 56 44 64 N8 29.66R ANDOVER N/A 55 44 66 NE8 29.66R TRENTON CLOUDY 56 45 66 NE6 29.63R MILLVILLE CLOUDY 53 46 77 E8 29.63R ATLANTIC CITY CLOUDY 51 46 83 NE9 29.63R WRIGHTSTOWN CLOUDY 54 46 74 NE8 29.61R TOMS RIVER CLOUDY 52 43 71 NE14 29.64R BELMAR NOT AVBL $$ PAZ047>061-062-071-060100- EASTERN PENNSYLVANIA CITY SKY/WX TMP DP RH WIND PRES REMARKS PHILADELPHIA CLOUDY 58 44 60 NE13 29.64R ALLENTOWN CLOUDY 57 44 62 E8 29.65R SCRANTON CLOUDY 55 43 63 N13 29.67R $$ CTZ002-004>006-009-010-012-RIZ004-006-007-MAZ004-011-015-060100- SOUTHERN NEW ENGLAND IN CT CITY SKY/WX TMP DP RH WIND PRES REMARKS BRADLEY INTL DRIZZLE 49 44 83 NE9 29.69R HARTFORD CLOUDY 51 44 77 N15G22 29.69R DANBURY CLOUDY 53 43 68 NE8G21 29.67R WTRBRY/OXFORD CLOUDY 48 41 76 NE12G21 29.68R BRIDGEPORT CLOUDY 53 43 68 NE15 29.67R MERIDEN CLOUDY 50 43 77 N12G21 29.68R NEW HAVEN CLOUDY 50 43 77 N18G24 29.66R CHESTER CLOUDY 48 43 81 N13G20 29.66R GROTON CLOUDY 46 43 89 N17G29 29.63R WILLIMANTIC CLOUDY 49 40 71 NE13G25 29.68R IN RI CITY SKY/WX TMP DP RH WIND PRES REMARKS PROVIDENCE LGT RAIN 45 41 86 N16G28 29.67S BLOCK ISLAND CLOUDY 45 42 89 N21G31 29.63R WESTERLY LGT RAIN 45 40 82 N12 29.64S IN MA CITY SKY/WX TMP DP RH WIND PRES REMARKS BOSTON LGT RAIN 45 42 89 NE15 29.72F WORCESTER LGT RAIN 42 41 96 NE13G20 29.69S VSB 3/4 WESTFIELD CLOUDY 51 42 71 NE17 29.70R PROVINCETOWN LGT RAIN 44 42 93 NE21G32 29.66S NANTUCKET RAIN 45 43 93 N29G40 29.57R FOG $$ ANZ330-335-338-340-345-350-353-355-060100- COASTAL MARINE OBSERVATIONS STATION/POSITION TIME SKY/WX TEMP WIND PRES VSBY WAVE AIR SEA DIR/SP/G HT/PER (UTC) (F) (DEG/KT/KT) (MB) (MI) (FT/S) NY HARB ENTRANCE 2250 52 50 30/ 16/ 17 1002.7 5/ 8 20S FIRE ISLAND 2250 48 48 30/ 19/ 23 1002.3 7/ 7 GREAT SOUTH BAY 2330 50 53 20/ 16/ 21 N/A 23 SSW MONTAUK P 2350 45 46 30/ 25/ 31 1001.3 9/ 7 15 E BARNEGAT LI 2322 48 N/A 7/ 8 HUDSON CANYON 2250 47 49 1000.1 10/ 8 KINGS POINT 2300 54 1003.1 EXECUTION ROCKS NOT AVBL CENTRAL LI SOUND NOT AVBL EASTERN LI SOUND 2300 48 47 40/ 21/ 31 N/A ROBBINS REEF 2300 1002.5 $$ >>>>>>>>>>>>>>>>>>>>>>>>>>>> KEY <<<<<<<<<<<<<<<<<<<<<<<<<<< > < > SKY/WX - SKY CONDITION/PRESENT WEATHER < > TMP - TEMPERATURE IN FAHRENHEIT < > DP - DEWPOINT IN FAHRENHEIT < > RH - RELATIVE HUMIDITY IN PERCENT < > WIND - DIRECTION AND SPEED IN MPH < > PRES - MEAN SEA LEVEL PRESSURE IN INCHES OF HG < > WCI - WIND CHILL INDEX < > VSB - VISIBILITY IN MILES < > HX - HEAT INDEX < > TC - TEMPERATURE IN CELSIUS < > VRB - VARIABLE WIND DIRECTION < > < >>>>>>>>>>>>>>>>>>>>>>>>>>>> KEY <<<<<<<<<<<<<<<<<<<<<<<<<<<

USA.gov is the U.S. government's official web portal to all federal, state and local government web resources and services.